Starlink 11666

operational
NORAD ID: 63667 Int'l Des: 2025-085 Owner: SPXS Country: US Constellation: starlink
LEOCIRCULAR

关于 Starlink 11666

正在加载描述...

实时位置

正在加载3D地球...

即将过境

高度历史

Altitude vs Time

uPlot chart will show altitude changes over time

两行轨道根数

1 63667U 25085D 25304.40095197 .00335684 00000-0 24844-2 0 9990
2 63667 42.9973 338.1234 0001739 196.2841 163.7971 15.71134593 29812
Epoch: Oct 31, 2025 • Age: 26 hours

当前状态

高度 355.7 km
速度 7.70 km/s
星下点 38.28°N, 127.49°W
发射日期 Apr 28, 2025
运行时间 0.5 years
类型 internet

技术详情

分类 Payload
质量 960.00 kg
干质量 910.00 kg
总质量 960.00 kg
长度 0.30 m
直径 4.10 m
跨度 29.00 m
形状 Box + pan
制造商 SPXS
平台类型 Starlink V2MD
阶段状态 In Orbit
所有者/国家 SPXS/US

大型星座

Loading constellations...